Flag for South Africa Weather past 2 weeks in Stellenbosch, South Africa

Now
61 °F

Clear.


Feels Like: 61 °F
Forecast: 45 / 78 °F
Wind: 13 mph from Southwest

Location: Cape Town International Airport

Current Time: Jul 29, 2014 at 7:00:40 PM

Latest Report: Jul 29, 2014 at 6:00 PM


Visibility: 10 mi

Pressure: 30.21 "Hg

Humidity: 77%

Dew point: 54 °F

Location of StellenboschLocation

Historic Weather in Stellenbosch — Graph

°F

Stellenbosch temperature yesterday

Maximum temperature yesterday: 68 °F (at 2:00 PM)
Minimum temperature yesterday: 52 °F (at 8:00 AM)
Average temperature yesterday: 59 °F

Past Weeks' High & Low Weather Summary

 TemperatureHumidityPressure
High73 °F (Jul 15, 1:00 PM)100% (Jul 23, 6:00 AM)30.51 "Hg (Jul 23, 6:00 AM)
Low37 °F (Jul 21, 4:00 AM)22% (Jul 15, 3:00 PM)29.74 "Hg (Jul 17, 8:00 AM)
Average55 °F78%30.14 "Hg
* Reported Jul 14 6:00 PM — Jul 29 6:00 PM, Stellenbosch, Weather by CustomWeather, © 2014

Note: Actual official high and low records may vary slightly from our data, if they occured in-between our weather recording intervals... More about our weather records

Advertising

Stellenbosch weather history for previous 24 hours

 ConditionsComfort  
Time TempWeatherWind HumidityBarometerVisibility
6:00 PM
Jul 29
61 °FClear.13 mph77%30.21 "Hg10 mi
5:00 PM61 °FPassing clouds.15 mph77%30.24 "HgN/A
4:00 PM63 °FPassing clouds.16 mph77%30.24 "HgN/A
3:00 PM63 °FPassing clouds.15 mph73%30.27 "HgN/A
2:00 PM64 °FSunny.12 mph68%30.27 "Hg10 mi
1:00 PM64 °FSunny.10 mph73%30.30 "Hg10 mi
12:00 PM63 °FPassing clouds.7 mph77%30.33 "Hg6 mi
11:00 AM59 °FFog.8 mph88%30.33 "Hg1 mi
10:00 AM59 °FSunny.6 mph82%30.33 "Hg10 mi
9:00 AM50 °FClear.1 mph94%30.33 "Hg4 mi
8:00 AM45 °FClear.2 mph93%30.33 "Hg5 mi
7:00 AM46 °FClear.3 mph93%30.33 "Hg4 mi
6:00 AM45 °FClear.2 mph100%30.33 "Hg4 mi
5:00 AM45 °FFog.2 mph93%30.33 "Hg2 mi
4:00 AM46 °FClear.1 mph93%30.33 "Hg3 mi
3:00 AM48 °FClear.2 mph94%30.36 "Hg10 mi
2:00 AM46 °FClear.3 mph93%30.36 "Hg4 mi
1:00 AM50 °FFog.2 mph94%30.39 "Hg2 mi
12:00 AM52 °FClear.5 mph94%30.39 "Hg10 mi
10:00 PM
Jul 28
54 °FClear.No wind88%30.42 "Hg10 mi
9:00 PM54 °FClear.1 mph88%30.39 "Hg10 mi
8:00 PM57 °FPassing clouds.3 mph88%30.39 "HgN/A
7:00 PM59 °FPassing clouds.7 mph88%30.39 "HgN/A
Weather by CustomWeather, © 2014

See weather overviewHow to use our weather pages